Weather History for Whitefield, NH

Change the Weather History Date:

Sunday, September 15, 2013

  Actual Average Record
Temperature  
Mean Temperature 52 °F -  
Max Temperature 66 °F 68 °F 79 °F (2008)
Min Temperature 37 °F 40 °F 26 °F (2001)
Degree Days  
Heating Degree Days 14    
Growing Degree Days 2 (Base 50)    
Moisture  
Dew Point 43 °F    
Average Humidity 82    
Maximum Humidity 96    
Minimum Humidity 50    
Precipitation  
Precipitation 0.01 in - - ()
Sea Level Pressure  
Sea Level Pressure 30.10 in    
Wind  
Wind Speed 1 mph (WSW)    
Max Wind Speed 8 mph    
Max Gust Speed -    
Visibility 5 miles    
Events Fog , Rain    
Averages and records for this station are not official NWS values.
T = Trace of Precipitation, MM = Missing Value Source: NWS Daily Summary

Daily Weather History Graph

Daily Weather History Graph

Search for Another Location

Airport:

Trip Planner

Search our weather history database for the weather conditions in past years. The results will help you decide how hot, cold, wet, or windy it might be!

Date:

Astronomy

Sep. 15, 2013 Rise Set
Actual Time 6:25 AM EDT 6:56 PM EDT
Civil Twilight 5:56 AM EDT 7:25 PM EDT
Nautical Twilight 5:21 AM EDT 7:59 PM EDT
Astronomical Twilight 4:46 AM EDT 8:35 PM EDT
Moon 4:28 PM EDT (9/15) 1:52 AM EDT (9/15)
Length of Visible Light 13h 29m
Length of Day
12h 30m
Waxing Gibbous, 82% of the Moon is Illuminated
Sep 15
Waxing Gibbous
Sep 19
Full
Sep 26
Last Quarter
Oct 4
New
Oct 11
First Quarter

Hourly Weather History & Observations

Time (EDT) Temp. Dew Point Humidity Pressure Visibility Wind Dir Wind Speed Gust Speed Precip Events Conditions
12:52 AM 48.0 °F 45.0 °F 89% 30.09 in 10.0 mi Calm Calm - N/A   Overcast
1:42 AM 44.6 °F 42.8 °F 93% 30.07 in 1.8 mi Calm Calm - N/A   Clear
1:44 AM 44.6 °F 42.8 °F 93% 30.07 in 0.8 mi Calm Calm - N/A   Mist
1:52 AM 44.1 °F 42.1 °F 93% 30.09 in 0.2 mi Calm Calm - N/A Fog Fog
2:24 AM 42.8 °F 39.2 °F 87% 30.08 in 1.2 mi Calm Calm - N/A   Scattered Clouds
2:27 AM 42.8 °F 39.2 °F 87% 30.08 in 3.0 mi Calm Calm - N/A   Scattered Clouds
2:42 AM 42.8 °F 39.2 °F 87% 30.08 in 1.0 mi Calm Calm - N/A   Mist
2:49 AM 42.8 °F 39.2 °F 87% 30.08 in 0.2 mi Calm Calm - N/A Fog Fog
2:52 AM 42.1 °F 39.0 °F 89% 30.10 in 0.2 mi Calm Calm - N/A Fog Fog
3:25 AM 39.2 °F 37.4 °F 93% 30.08 in 1.2 mi Calm Calm - 0.00 in Rain Light Rain
3:27 AM 39.2 °F 37.4 °F 93% 30.08 in 3.0 mi Calm Calm - 0.00 in Rain Light Rain
3:29 AM 39.2 °F 37.4 °F 93% 30.09 in 1.5 mi Calm Calm - 0.00 in Rain Light Rain
3:33 AM 39.2 °F 37.4 °F 93% 30.08 in 0.8 mi Calm Calm - 0.00 in   Mist
3:52 AM 39.9 °F 37.9 °F 93% 30.12 in 0.2 mi Calm Calm - 0.00 in Fog , Rain Light Rain
4:52 AM 39.0 °F 37.9 °F 96% 30.13 in 0.2 mi Calm Calm - 0.01 in Fog , Rain Light Rain
5:52 AM 39.0 °F 37.0 °F 93% 30.13 in 0.2 mi Calm Calm - 0.00 in Fog Fog
6:52 AM 37.0 °F 36.0 °F 96% 30.14 in 0.2 mi Calm Calm - 0.00 in Fog , Rain Light Rain
7:52 AM 42.1 °F 39.0 °F 89% 30.14 in 1.5 mi Calm Calm - 0.00 in Rain Light Rain
7:55 AM 42.8 °F 39.2 °F 87% 30.12 in 3.0 mi Calm Calm - 0.00 in Rain Light Rain
8:10 AM 42.8 °F 39.2 °F 87% 30.13 in 1.5 mi Calm Calm - 0.00 in Rain Light Rain
8:15 AM 42.8 °F 41.0 °F 93% 30.13 in 0.8 mi Calm Calm - 0.00 in Rain Light Rain
8:21 AM 42.8 °F 41.0 °F 93% 30.13 in 1.2 mi Calm Calm - 0.00 in   Mostly Cloudy
8:26 AM 44.6 °F 42.8 °F 93% 30.13 in 3.0 mi Calm Calm - 0.00 in   Mostly Cloudy
8:37 AM 44.6 °F 42.8 °F 93% 30.13 in 10.0 mi Calm Calm - 0.00 in   Scattered Clouds
8:52 AM 48.0 °F 44.1 °F 86% 30.16 in 10.0 mi Calm Calm - 0.00 in   Clear
9:52 AM 55.9 °F 46.9 °F 72% 30.14 in 10.0 mi Calm Calm - N/A   Clear
10:52 AM 60.1 °F 45.0 °F 57% 30.14 in 10.0 mi Variable 5.8 mph - N/A   Clear
11:52 AM 61.0 °F 44.1 °F 54% 30.13 in 10.0 mi SW 5.8 mph - N/A   Clear
12:52 PM 63.0 °F 46.0 °F 54% 30.12 in 10.0 mi Variable 5.8 mph - N/A   Partly Cloudy
1:52 PM 64.0 °F 46.0 °F 52% 30.10 in 10.0 mi West 6.9 mph - N/A   Partly Cloudy
2:52 PM 66.0 °F 46.9 °F 50% 30.07 in 10.0 mi West 8.1 mph - N/A   Partly Cloudy
3:52 PM 64.0 °F 46.0 °F 52% 30.07 in 10.0 mi Calm Calm - N/A   Partly Cloudy
4:52 PM 66.0 °F 48.0 °F 52% 30.06 in 10.0 mi SW 3.5 mph - N/A   Mostly Cloudy
5:52 PM 63.0 °F 48.0 °F 58% 30.06 in 10.0 mi WSW 3.5 mph - N/A   Clear
6:52 PM 59.0 °F 51.1 °F 75% 30.06 in 10.0 mi Calm Calm - N/A   Clear
7:52 PM 55.0 °F 51.1 °F 86% 30.05 in 10.0 mi Calm Calm - N/A   Clear
8:52 PM 54.0 °F 51.1 °F 90% 30.06 in 10.0 mi Calm Calm - N/A   Clear
9:52 PM 54.0 °F 48.9 °F 83% 30.05 in 10.0 mi Calm Calm - N/A   Clear
10:52 PM 53.1 °F 50.0 °F 89% 30.06 in 10.0 mi Calm Calm - N/A   Mostly Cloudy
11:52 PM 53.1 °F 50.0 °F 89% 30.03 in 10.0 mi Calm Calm - N/A   Partly Cloudy